Regional Weather Roundup
Issued by NWS Portland, ME

Current Version | Previous Version | Text Only | Print | Product List | Glossary Off
Versions: 1 2 3 4 5 6 7 8 9 10 11 12 13 14 15 16 17 18 19 20 21 22 23 24 25 26 27 28 29 30 31 32 33 34 35 36 37 38 39 40 41 42 43 44 45 46 47 48 49 50
000 ASUS41 KGYX 142310 RWRGYX WEATHER ROUNDUP FOR MAINE AND NEW HAMPSHIRE NATIONAL WEATHER SERVICE GRAY ME 700 PM EDT TUE AUG 14 2018 MEZ002-005-006-010-012-015-018-020-021-024-026-027-029-150000- MAINE CITY SKY/WX TMP DP RH WIND PRES REMARKS PORTLAND RAIN 70 70 100 E8 29.84F VSB 1 SANFORD FAIR 70 68 94 CALM 29.85R BAR HARBOR CLOUDY 70 69 97 S6 29.87F WISCASSET CLOUDY 71 70 96 VRB3 29.87S ROCKLAND FOG 65 65 100 CALM 29.87F VSB 1/2 FRYEBURG FAIR 75 74 96 E6 29.84F LEWISTONAUBURN N/A 73 70 90 S8 29.85R AUGUSTA FAIR 74 69 85 S6 29.85F WATERVILLE FAIR 74 70 87 CALM 29.82S BANGOR MOCLDY 75 70 84 S8 29.85F GREENVILLE N/A 71 69 93 VRB3 29.85F MILLINOCKET FAIR 75 70 84 CALM 29.85F HOULTON MOCLDY 75 70 84 S3 29.83S PRESQUE ISLE MOCLDY 77 69 76 S9 29.83F FRENCHVILLE CLOUDY 77 68 73 SE3 29.82F CARIBOU CLOUDY 78 68 71 S6 29.82S $$ NHZ002-005-008-009-011-012-014-150000- NEW HAMPSHIRE CITY SKY/WX TMP DP RH WIND PRES REMARKS PORTSMOUTH PTCLDY 70 67 91 E3 29.82F ROCHESTER FAIR 71 70 96 SE3 29.83S MANCHESTER NOT AVBL CONCORD FAIR 75 70 84 SE5 29.84R LACONIA FAIR 75 71 87 CALM 29.85R PLYMOUTH FAIR 75 68 77 CALM 29.82S BERLIN FAIR 76 70 82 CALM 29.84F WHITEFIELD FAIR 79 68 69 CALM 29.83F JAFFREY NOT AVBL LEBANON FAIR 79 67 66 CALM 29.80F MT WASHINGTON CLOUDY 55 54 94 SW12 N/A $$ VTZ005-007-008-150000- VERMONT CITY SKY/WX TMP DP RH WIND PRES REMARKS ST JOHNSBURY N/A 78 68 71 MISG 29.79F MONTPELIER FAIR 77 68 73 S5 29.85F BURLINGTON MOCLDY 83 63 50 SW7 29.77S $$ MAZ007-012-024-CTZ003-RIZ002-NYZ038-NYZ072-150000- SOUTHERN NEW ENGLAND AND NY CITY SKY/WX TMP DP RH WIND PRES REMARKS BOSTON MOCLDY 75 71 87 E9 29.82S WORCESTER FAIR 71 68 90 SE3 29.85F NANTUCKET FAIR 73 72 96 S10 29.87S PROVIDENCE FAIR 79 67 66 S16 29.84S HARTFORD MOCLDY 76 70 82 CALM 29.80S ALBANY MOCLDY 78 66 66 SE6 29.79R NEW YORK CITY MOCLDY 76 66 71 SW9 29.81S $$ ANZ081-ANZ082-ANZ150-NHZ014-MEZ023>029-150000- COASTAL MARINE OBSERVATIONS STATION/POSITION TIME TEMP WIND PRES WAVE AIR SEA DIR/SP/G HT/PER (UTC) (F) (DEG/KT/KT) (MB) (FT/S) MOUNT DESERT ROC 2300 69 170/ 9/ 10 1011.8F MATINICUS ROCK 2200 69 220/ 5/ 5 1011.5S ISLE OF SHOALS 2200 68 60/ 14/ 15 1009.8F JEFFREYS LEDGE 2236 72 N/A 2/ 7 CASHES LEDGE BUO 2250 72 71 N/A 2/ 8 $$ .............KEY.............. WCI - WIND CHILL TC - TEMPERATURE IN CELSIUS VSB - VISIBILITY IN MILES HX - HEAT INDEX FAIR- INDICATES FEW OR NO CLOUDS BELOW 12,000 FT, WITH NO SIGNIFICANT WEATHER AND/OR OBSTRUCTIONS TO VISIBILITY.

USA.gov is the U.S. government's official web portal to all federal, state and local government web resources and services.